カタログに戻る

STARLINK-36539

運用中通信VLEO
NORAD 67446·PAYLOAD·🇺🇸 United States

打ち上げ Jan 14, 2026 から Cape Canaveral Space Force Station

Loading…

次のパス (今後24時間)

TLE

最新Source: CelesTrak SupGP

元期: Sep 15, 2026, 02:51 UTC

1 67446C 26008B   26258.11923611 -.00081910  00000+0 -29658-2 0  2580
2 67446  43.0007 215.9016 0001577 272.5590 230.6990 15.27629862    15

AllMySatでSTARLINK-36539をリアルタイム追跡

Download on the App Store